GW5734 Weather Reports


Display with metric or nautical units.
time (UTC)temp
F
wind
direction
speed
MPH
gust
MPH
rain 1hr
in
rain 24hr
in
rain mn
in
humidity
%
barometer
mb
20260507073313 68 31 1.0 3.0 0.00 0.00 0.00 63 1014.0
20260507072812 67 31 0.0 3.0 0.00 0.00 0.00 63 1014.0
20260507072313 67 30 1.0 3.0 0.00 0.00 0.00 66 1014.0
20260507071813 67 30 0.0 0.0 0.00 0.00 0.00 67 1014.0
20260507071314 66 30 0.0 1.0 0.00 0.00 0.00 69 1014.0
20260507070813 66 30 1.0 1.0 0.00 0.00 0.00 73 1014.0
20260507070312 66 30 1.0 2.0 0.00 0.00 0.00 72 1014.0
20260507065812 65 54 1.0 2.0 0.00 0.00 0.00 74 1014.0
20260507065312 65 82 2.0 2.0 0.00 0.00 0.00 75 1014.0
20260507064812 65 83 2.0 7.0 0.00 0.00 0.00 75 1014.0
20260507064312 64 105 1.0 1.0 0.00 0.00 0.00 80 1014.0
20260507063812 64 104 3.0 3.0 0.00 0.00 0.00 82 1014.0
20260507063312 63 101 1.0 2.0 0.00 0.00 0.00 83 1014.0
20260507062812 62 102 0.0 1.0 0.00 0.00 0.00 84 1014.0
20260507062312 62 102 0.0 1.0 0.00 0.00 0.00 85 1014.0
20260507061813 63 101 1.0 2.0 0.00 0.00 0.00 84 1014.0
20260507061312 63 101 2.0 5.0 0.00 0.00 0.00 83 1014.0
20260507060812 65 85 2.0 3.0 0.00 0.00 0.00 78 1014.0
20260507060312 64 240 3.0 3.0 0.00 0.00 0.00 75 1014.0
20260507055812 64 237 3.0 6.0 0.00 0.00 0.00 77 1014.0
20260507055312 63 255 4.0 7.0 0.00 0.00 0.00 78 1013.0
20260507054813 61 242 3.0 6.0 0.00 0.00 0.00 86 1013.0
20260507054312 59 223 1.0 2.0 0.00 0.00 0.00 93 1013.0
20260507053812 59 222 1.0 2.0 0.00 0.00 0.00 93 1013.0
20260507053312 58 221 0.0 0.0 0.00 0.00 0.00 94 1013.0
20260507052813 58 221 1.0 2.0 0.00 0.00 0.00 94 1013.0
20260507052312 58 223 0.0 0.0 0.00 0.00 0.00 94 1013.0
20260507051812 58 222 0.0 1.0 0.00 0.00 0.00 94 1013.0
20260507051313 58 222 1.0 1.0 0.00 0.00 0.00 94 1013.0
20260507050813 58 223 0.0 0.0 0.00 0.00 0.00 94 1013.0
20260507050313 58 223 1.0 2.0 0.00 0.00 0.00 93 1013.0
20260507045813 59 223 0.0 1.0 0.00 0.00 0.00 93 1013.0
20260507045314 59 228 2.0 2.0 0.00 0.00 0.00 94 1013.0
20260507044812 58 228 0.0 1.0 0.00 0.00 0.00 94 1013.0
20260507044312 58 228 1.0 2.0 0.00 0.00 0.00 94 1013.0
20260507043329 57 228 3.0 3.0 0.00 0.00 0.00 95 1013.0
20260507042815 57 227 2.0 3.0 0.00 0.00 0.00 96 1012.0
20260507042313 56 193 2.0 2.0 0.00 0.00 0.00 96 1012.0
20260507041812 56 193 0.0 2.0 0.00 0.00 0.00 96 1013.0
20260507041312 56 193 2.0 2.0 0.00 0.00 0.00 96 1013.0
20260507040812 56 193 1.0 1.0 0.00 0.00 0.00 96 1012.0
20260507040313 55 192 1.0 1.0 0.00 0.00 0.00 96 1012.0
20260507035812 55 192 0.0 0.0 0.00 0.00 0.00 96 1012.0
20260507035312 55 192 0.0 0.0 0.00 0.00 0.00 95 1012.0
20260507034813 56 192 0.0 1.0 0.00 0.00 0.00 95 1012.0
20260507034313 56 192 1.0 1.0 0.00 0.00 0.00 96 1012.0
20260507033813 56 192 0.0 2.0 0.00 0.00 0.00 96 1012.0
20260507033312 56 192 1.0 1.0 0.00 0.00 0.00 95 1012.0
20260507032814 56 191 2.0 2.0 0.00 0.00 0.00 95 1012.0
20260507032313 56 191 2.0 2.0 0.00 0.00 0.00 95 1012.0
20260507031813 56 191 1.0 1.0 0.00 0.00 0.00 95 1012.0
20260507031312 57 191 1.0 1.0 0.00 0.00 0.00 95 1012.0
20260507030812 57 191 1.0 2.0 0.00 0.00 0.00 94 1012.0
20260507030312 57 190 2.0 3.0 0.00 0.00 0.00 94 1012.0
20260507025813 57 322 1.0 1.0 0.00 0.00 0.00 94 1012.0
20260507025312 57 322 1.0 1.0 0.00 0.00 0.00 94 1012.0
20260507024812 57 322 0.0 1.0 0.00 0.00 0.00 93 1012.0
20260507024313 58 322 1.0 1.0 0.00 0.00 0.00 93 1012.0
20260507023813 58 322 1.0 2.0 0.00 0.00 0.00 93 1012.0
20260507023312 58 322 1.0 2.0 0.00 0.00 0.00 92 1012.0
20260507022813 58 322 1.0 1.0 0.00 0.00 0.00 92 1012.0
20260507022313 59 322 1.0 1.0 0.00 0.00 0.00 91 1012.0
20260507021813 59 322 0.0 1.0 0.00 0.00 0.00 92 1012.0
20260507021313 59 322 1.0 1.0 0.00 0.00 0.00 91 1012.0
20260507020812 59 322 2.0 2.0 0.00 0.00 0.00 91 1012.0
20260507020314 59 323 3.0 3.0 0.00 0.00 0.00 91 1012.0
20260507015812 59 323 0.0 0.0 0.00 0.00 0.00 91 1012.0
20260507015312 59 323 0.0 1.0 0.00 0.00 0.00 91 1012.0
20260507014813 59 323 0.0 0.0 0.00 0.00 0.00 91 1012.0
20260507014312 59 323 2.0 5.0 0.00 0.00 0.00 91 1012.0
20260507013812 59 323 2.0 2.0 0.00 0.00 0.00 91 1012.0
20260507012828 59 323 0.0 1.0 0.00 0.00 0.00 90 1012.0
20260507012312 60 323 1.0 2.0 0.00 0.00 0.00 89 1012.0
20260507011812 60 323 1.0 1.0 0.00 0.00 0.00 88 1012.0
20260507011313 60 323 0.0 0.0 0.00 0.00 0.00 88 1012.0
20260507010818 60 323 0.0 1.0 0.00 0.00 0.00 87 1012.0
20260507010312 60 323 1.0 2.0 0.00 0.00 0.00 87 1012.0
20260507005812 60 323 1.0 1.0 0.00 0.00 0.00 87 1012.0
20260507005312 60 323 2.0 3.0 0.00 0.00 0.00 87 1012.0
20260507004812 60 323 3.0 3.0 0.00 0.00 0.00 86 1012.0
20260507004313 61 324 1.0 2.0 0.00 0.00 0.00 85 1012.0
20260507003812 61 323 1.0 1.0 0.00 0.00 0.00 85 1012.0
20260507003313 61 323 1.0 1.0 0.00 0.00 0.00 84 1012.0
20260507002812 61 323 0.0 0.0 0.00 0.00 0.00 82 1012.0
20260507002314 61 323 0.0 1.0 0.00 0.00 0.00 82 1012.0
20260507001813 61 323 1.0 3.0 0.00 0.00 0.00 82 1012.0
20260507001312 61 324 4.0 5.0 0.00 0.00 0.00 82 1012.0
20260507000812 62 322 0.0 0.0 0.00 0.00 0.00 82 1012.0
20260507000320 62 322 1.0 2.0 0.00 0.00 0.00 82 1013.0
20260506235812 62 322 2.0 2.0 0.00 0.00 0.00 81 1012.0
20260506235312 62 322 0.0 1.0 0.00 0.00 0.00 80 1012.0
20260506234812 63 316 4.0 5.0 0.00 0.00 0.00 79 1012.0
20260506234312 63 211 2.0 3.0 0.00 0.00 0.00 78 1012.0
20260506233323 64 181 4.0 7.0 0.00 0.00 0.00 75 1012.0
20260506232812 63 285 2.0 7.0 0.00 0.00 0.00 77 1012.0
20260506232312 63 285 2.0 5.0 0.00 0.00 0.00 77 1012.0
20260506231812 64 305 5.0 7.0 0.00 0.00 0.00 76 1012.0
20260506231312 64 286 3.0 5.0 0.00 0.00 0.00 77 1012.0
20260506230813 64 207 4.0 7.0 0.00 0.00 0.00 75 1012.0
20260506230312 65 181 5.0 8.0 0.00 0.00 0.00 74 1012.0
20260506225812 65 227 6.0 9.0 0.00 0.00 0.00 74 1012.0
20260506225312 64 200 8.0 13.0 0.00 0.00 0.00 75 1012.0
20260506224812 64 212 5.0 10.0 0.00 0.00 0.00 76 1012.0
20260506224313 64 177 8.0 11.0 0.00 0.00 0.00 75 1012.0
20260506223815 64 202 6.0 10.0 0.00 0.00 0.00 76 1012.0
20260506223313 64 185 5.0 13.0 0.00 0.00 0.00 77 1012.0
20260506222812 64 174 6.0 9.0 0.00 0.00 0.00 77 1012.0
20260506222312 63 192 5.0 8.0 0.00 0.00 0.00 78 1012.0
20260506221812 63 180 3.0 6.0 0.00 0.00 0.00 78 1012.0
20260506221313 63 198 2.0 5.0 0.00 0.00 0.00 78 1012.0
20260506220812 63 184 2.0 2.0 0.00 0.00 0.00 78 1012.0
20260506220312 63 131 3.0 3.0 0.00 0.00 0.00 78 1012.0
20260506215813 63 217 1.0 5.0 0.00 0.00 0.07 79 1012.0
20260506215313 63 83 1.0 3.0 0.00 0.00 0.07 80 1012.0
20260506214812 62 47 0.0 2.0 0.00 0.00 0.07 82 1012.0
20260506214314 63 47 0.0 1.0 0.00 0.00 0.07 81 1012.0
20260506213813 63 47 2.0 3.0 0.00 0.00 0.07 81 1012.0
20260506213312 62 46 3.0 5.0 0.00 0.00 0.07 84 1012.0
20260506212812 60 123 2.0 2.0 0.00 0.00 0.07 90 1012.0
20260506212313 60 123 1.0 1.0 0.00 0.00 0.07 91 1012.0
20260506211812 60 123 1.0 1.0 0.00 0.00 0.07 91 1012.0
20260506211312 60 123 1.0 1.0 0.00 0.00 0.07 91 1012.0
20260506210813 60 123 1.0 2.0 0.00 0.00 0.07 91 1012.0
20260506210312 60 237 2.0 3.0 0.00 0.00 0.07 91 1012.0
20260506205813 60 238 1.0 2.0 0.00 0.00 0.07 92 1012.0
20260506205314 60 238 2.0 2.0 0.00 0.00 0.07 92 1012.0
20260506204813 60 239 1.0 2.0 0.00 0.00 0.07 90 1012.0
20260506204314 60 239 0.0 1.0 0.00 0.00 0.07 90 1012.0
20260506203813 60 239 0.0 2.0 0.00 0.00 0.07 90 1012.0
20260506203313 61 239 0.0 2.0 0.00 0.00 0.07 90 1012.0
20260506202813 61 239 0.0 1.0 0.00 0.00 0.07 89 1012.0
20260506202314 61 239 1.0 1.0 0.00 0.00 0.07 89 1012.0
20260506201813 60 239 1.0 1.0 0.00 0.00 0.07 90 1012.0
20260506201312 60 239 2.0 3.0 0.00 0.00 0.07 89 1012.0
20260506200812 61 240 0.0 1.0 0.00 0.00 0.07 88 1012.0
20260506200313 61 240 1.0 2.0 0.00 0.00 0.07 88 1012.0
20260506195813 61 240 0.0 0.0 0.00 0.00 0.07 87 1012.0
20260506195319 61 240 0.0 1.0 0.00 0.00 0.07 87 1012.0
20260506194813 62 234 3.0 3.0 0.00 0.00 0.07 86 1012.0
20260506194312 62 336 0.0 2.0 0.00 0.00 0.07 85 1012.0
20260506193813 62 336 1.0 2.0 0.00 0.00 0.07 85 1012.0
20260506193312 62 336 3.0 3.0 0.00 0.00 0.07 85 1012.0
20260506192812 62 337 0.0 2.0 0.00 0.00 0.07 84 1012.0
20260506192312 62 337 1.0 2.0 0.00 0.00 0.07 85 1012.0
20260506191812 62 337 0.0 0.0 0.00 0.00 0.07 84 1012.0
20260506191312 62 337 1.0 1.0 0.00 0.00 0.07 83 1012.0
20260506190813 62 337 0.0 0.0 0.00 0.00 0.07 83 1012.0
20260506190312 63 337 0.0 0.0 0.00 0.00 0.07 83 1012.0
20260506185813 63 337 1.0 2.0 0.00 0.00 0.07 82 1011.0
20260506185312 63 337 0.0 0.0 0.00 0.00 0.07 80 1012.0
20260506184812 64 337 2.0 3.0 0.00 0.00 0.07 80 1011.0
20260506184313 64 337 3.0 5.0 0.00 0.00 0.07 80 1011.0
20260506183814 64 0 3.0 3.0 0.00 0.00 0.07 79 1011.0
20260506183312 64 357 5.0 8.0 0.00 0.00 0.07 80 1011.0
20260506182813 64 356 5.0 8.0 0.00 0.00 0.07 79 1011.0
20260506182312 64 352 4.0 6.0 0.00 0.00 0.07 79 1011.0
20260506181812 64 345 3.0 6.0 0.00 0.00 0.07 78 1010.0
20260506181312 64 311 5.0 7.0 0.00 0.00 0.07 78 1011.0
20260506180813 65 326 4.0 5.0 0.00 0.00 0.07 78 1010.0
20260506180313 65 305 5.0 8.0 0.00 0.00 0.07 77 1010.0
20260506175812 66 280 1.0 7.0 0.00 0.00 0.07 75 1010.0
20260506175312 67 274 2.0 3.0 0.00 0.00 0.07 74 1010.0
20260506174812 67 221 1.0 1.0 0.00 0.00 0.07 73 1010.0
20260506174313 68 221 1.0 1.0 0.00 0.00 0.07 71 1010.0
20260506173813 68 221 1.0 3.0 0.00 0.00 0.07 71 1010.0
20260506173312 68 198 1.0 1.0 0.00 0.00 0.07 69 1010.0
20260506172812 69 220 2.0 3.0 0.00 0.00 0.07 68 1010.0
20260506172312 69 196 1.0 3.0 0.00 0.00 0.07 67 1010.0
20260506171813 69 200 3.0 5.0 0.00 0.00 0.07 68 1010.0
20260506171313 69 226 3.0 5.0 0.00 0.00 0.07 68 1010.0
20260506170813 69 205 5.0 7.0 0.00 0.00 0.07 67 1010.0
20260506170313 69 195 6.0 9.0 0.00 0.00 0.07 66 1010.0
20260506165813 69 192 5.0 8.0 0.00 0.00 0.07 66 1010.0
20260506165312 70 195 4.0 7.0 0.00 0.00 0.07 66 1010.0
20260506164813 70 190 4.0 7.0 0.00 0.00 0.07 65 1010.0
20260506164312 71 199 5.0 14.0 0.00 0.00 0.07 64 1010.0
20260506163813 71 198 8.0 13.0 0.00 0.00 0.07 63 1010.0
20260506163312 71 178 7.0 11.0 0.00 0.00 0.07 62 1010.0
20260506162814 71 165 10.0 13.0 0.00 0.00 0.07 63 1010.0
20260506162312 71 165 7.0 11.0 0.00 0.00 0.07 63 1010.0
20260506161812 71 219 9.0 15.0 0.00 0.00 0.07 62 1010.0
20260506161313 71 209 5.0 11.0 0.00 0.00 0.07 63 1010.0
20260506160812 71 156 10.0 13.0 0.00 0.00 0.07 64 1010.0
20260506160315 71 190 6.0 11.0 0.00 0.00 0.07 64 1010.0
20260506155814 71 182 7.0 11.0 0.00 0.00 0.07 62 1010.0
20260506155312 71 164 8.0 15.0 0.00 0.00 0.07 62 1010.0
20260506154812 72 179 11.0 14.0 0.00 0.00 0.07 61 1010.0
20260506154313 72 182 8.0 11.0 0.00 0.00 0.07 61 1010.0
20260506153814 72 175 9.0 13.0 0.00 0.00 0.07 61 1010.0
20260506153312 72 180 9.0 14.0 0.00 0.00 0.07 60 1010.0
20260506152813 73 181 9.0 14.0 0.00 0.00 0.07 61 1010.0
20260506152316 72 179 9.0 15.0 0.00 0.00 0.07 62 1010.0
20260506151812 73 192 4.0 10.0 0.00 0.00 0.07 63 1010.0
20260506151319 72 199 5.0 11.0 0.00 0.00 0.07 62 1010.0
20260506150812 72 200 9.0 15.0 0.00 0.00 0.07 64 1010.0
20260506150312 72 174 5.0 8.0 0.00 0.00 0.07 66 1010.0
20260506145812 72 164 6.0 11.0 0.00 0.00 0.07 63 1010.0
20260506145312 72 190 9.0 11.0 0.00 0.00 0.07 64 1010.0
20260506144813 72 166 5.0 13.0 0.00 0.00 0.07 61 1010.0
20260506144313 72 165 8.0 15.0 0.00 0.00 0.07 64 1010.0
20260506143812 71 151 9.0 11.0 0.00 0.00 0.07 64 1010.0
20260506143315 71 196 7.0 14.0 0.00 0.00 0.07 63 1010.0
20260506142814 72 190 7.0 16.0 0.00 0.00 0.07 63 1010.0
20260506142315 72 182 12.0 18.0 0.00 0.00 0.07 60 1010.0
20260506141812 73 157 14.0 17.0 0.00 0.00 0.07 61 1010.0
20260506141313 73 206 13.0 20.0 0.00 0.00 0.07 60 1010.0
20260506140813 72 187 11.0 16.0 0.00 0.00 0.07 62 1010.0
20260506140312 72 204 10.0 15.0 0.00 0.00 0.07 63 1010.0
20260506135813 72 198 9.0 20.0 0.00 0.00 0.07 61 1010.0
20260506135312 73 205 10.0 16.0 0.00 0.00 0.07 61 1010.0
20260506134812 72 177 7.0 14.0 0.00 0.00 0.07 62 1010.0
20260506134313 72 202 8.0 15.0 0.00 0.00 0.07 63 1011.0
20260506133813 72 175 9.0 13.0 0.00 0.00 0.07 62 1010.0
20260506133313 72 180 7.0 15.0 0.00 0.00 0.07 61 1011.0
20260506132813 72 205 12.0 16.0 0.00 0.00 0.07 63 1011.0
20260506132313 72 196 13.0 15.0 0.00 0.00 0.07 59 1011.0
20260506131814 72 209 11.0 21.0 0.00 0.00 0.07 59 1011.0
20260506131312 72 163 3.0 13.0 0.00 0.00 0.07 58 1011.0
20260506130812 72 195 7.0 10.0 0.00 0.00 0.07 60 1011.0
20260506130316 71 195 5.0 13.0 0.00 0.00 0.07 60 1011.0
20260506125813 71 144 10.0 11.0 0.00 0.00 0.07 63 1011.0
20260506125312 71 151 8.0 13.0 0.00 0.00 0.07 61 1011.0
20260506124813 71 169 9.0 14.0 0.00 0.00 0.07 60 1012.0
20260506124319 71 209 7.0 11.0 0.00 0.00 0.07 62 1012.0
20260506123813 71 160 7.0 11.0 0.00 0.00 0.07 61 1012.0
20260506123312 71 179 11.0 16.0 0.00 0.00 0.07 60 1011.0
20260506122812 71 198 6.0 8.0 0.00 0.00 0.07 65 1011.0
20260506122312 71 159 7.0 11.0 0.00 0.00 0.07 63 1011.0
20260506121813 71 177 9.0 14.0 0.00 0.00 0.07 62 1011.0
20260506121313 71 198 9.0 11.0 0.00 0.00 0.07 64 1011.0
20260506120812 71 202 10.0 14.0 0.00 0.00 0.07 61 1012.0
20260506120314 71 219 8.0 13.0 0.00 0.00 0.07 62 1012.0
20260506115813 71 202 5.0 14.0 0.00 0.00 0.07 63 1012.0
20260506115313 71 230 7.0 15.0 0.00 0.00 0.07 62 1011.0
20260506114812 72 201 13.0 16.0 0.00 0.00 0.07 63 1011.0
20260506114312 71 231 4.0 10.0 0.00 0.00 0.07 65 1011.0
20260506113817 71 178 7.0 11.0 0.00 0.00 0.07 63 1012.0
20260506113312 71 187 7.0 10.0 0.00 0.00 0.07 68 1012.0
20260506112812 71 210 5.0 8.0 0.00 0.00 0.07 65 1012.0
20260506112312 70 208 3.0 8.0 0.00 0.00 0.07 67 1012.0
20260506111812 70 225 5.0 7.0 0.00 0.00 0.07 67 1012.0
20260506111313 70 186 7.0 9.0 0.00 0.00 0.07 66 1012.0
20260506110813 70 207 5.0 9.0 0.00 0.00 0.07 69 1012.0
20260506110313 69 206 5.0 13.0 0.00 0.00 0.07 67 1012.0
20260506105813 69 207 7.0 13.0 0.00 0.00 0.07 69 1012.0
20260506105312 69 171 6.0 7.0 0.00 0.00 0.07 72 1012.0
20260506104813 69 185 6.0 10.0 0.00 0.00 0.07 70 1012.0
20260506104313 68 141 5.0 10.0 0.00 0.00 0.07 71 1012.0
20260506103812 68 185 7.0 10.0 0.00 0.00 0.07 70 1012.0
20260506103313 68 189 7.0 14.0 0.00 0.00 0.07 69 1012.0
20260506102817 69 181 9.0 14.0 0.00 0.00 0.07 69 1012.0
20260506102312 68 208 6.0 15.0 0.00 0.00 0.07 71 1012.0
20260506101813 68 221 9.0 14.0 0.00 0.00 0.07 70 1012.0
20260506101313 68 207 6.0 15.0 0.00 0.00 0.07 71 1012.0
20260506100813 68 212 8.0 14.0 0.00 0.00 0.07 70 1012.0
20260506100312 68 185 7.0 10.0 0.00 0.00 0.07 71 1012.0
20260506095812 68 200 9.0 11.0 0.00 0.00 0.07 71 1012.0
20260506095314 68 185 12.0 17.0 0.00 0.00 0.07 68 1012.0
20260506094813 68 229 6.0 10.0 0.00 0.00 0.07 69 1012.0
20260506094314 68 168 7.0 15.0 0.00 0.00 0.07 68 1012.0
20260506093813 69 203 5.0 13.0 0.00 0.00 0.07 70 1012.0
20260506093312 69 204 9.0 14.0 0.00 0.00 0.07 69 1012.0
20260506092813 68 174 6.0 14.0 0.00 0.00 0.07 70 1012.0
20260506092312 68 217 8.0 15.0 0.00 0.00 0.07 69 1012.0
20260506091812 68 190 12.0 17.0 0.00 0.00 0.07 71 1012.0
20260506091312 67 171 8.0 17.0 0.00 0.00 0.07 70 1012.0
20260506090812 67 146 9.0 13.0 0.00 0.00 0.07 70 1012.0
20260506090312 67 173 13.0 16.0 0.00 0.00 0.07 70 1012.0
20260506085812 67 161 8.0 10.0 0.00 0.00 0.07 71 1012.0
20260506085313 67 150 4.0 11.0 0.00 0.00 0.07 72 1012.0
20260506084813 67 119 6.0 10.0 0.00 0.00 0.07 71 1012.0
20260506084313 67 144 10.0 15.0 0.00 0.00 0.07 70 1012.0
20260506083813 67 200 6.0 13.0 0.00 0.00 0.07 72 1012.0
20260506083313 66 197 4.0 6.0 0.00 0.00 0.07 74 1012.0
20260506082814 66 199 9.0 15.0 0.00 0.00 0.07 71 1012.0
20260506082312 66 201 5.0 9.0 0.00 0.00 0.07 72 1012.0
20260506081812 66 149 7.0 10.0 0.00 0.00 0.07 73 1012.0
20260506081312 65 149 3.0 7.0 0.00 0.00 0.07 75 1012.0
20260506080812 65 146 5.0 10.0 0.00 0.00 0.07 72 1012.0
20260506080312 65 168 6.0 9.0 0.00 0.00 0.07 75 1012.0